Skip Page Navigation
NASA JPL Caltech
NASA Logo - Jet Propulsion Laboratory + View the NASA Portal
+ Center for Near-Earth Object Studies
JPL Home Earth Solar System Stars & Galaxies Technology
JPL Solar System Dynamics
BODIES ORBITS EPHEMERIDES TOOLS PHYSICAL DATA DISCOVERY FAQ SITE MAP
IMPORTANT: The SSD Announcement email list is now available. Major changes are coming in the near future, including possible hostname and/or URL changes. To be notified of such changes, subscribe to this email list.

Please visit this page for more details.


JPL Small-Body Database Browser
Search: [ help ]  
183060 (2002 QX102)
Classification: Main-belt Asteroid          SPK-ID: 2183060
Ephemeris | Orbit Diagram | Orbital Elements | Mission Design | Physical Parameters | Discovery Circumstances | Close-Approach Data ]

[ show orbit diagram ]
Orbital Elements at Epoch 2458600.5 (2019-Apr-27.0) TDB
Reference: JPL 10 (heliocentric ecliptic J2000)
 Element Value Uncertainty (1-sigma)   Units 
e .199446395984296 1.5784e-07  
a 2.453439663448732 3.1903e-08 au
q 1.964109964808958 3.6615e-07 au
i 1.613617484346992 8.118e-06 deg
node 246.8193568873957 0.00018106 deg
peri 151.1969786862769 0.00018204 deg
M 71.36816493247451 1.5728e-05 deg
tp 2458322.231831802790
(2018-Jul-22.73183180)
5.8475e-05 TDB
period 1403.658629106948
3.84
2.7378e-05
7.496e-08
d
yr
n .2564726155881956 5.0025e-09 deg/d
Q 2.942769362088506 3.8265e-08 au
  Orbit Determination Parameters
   # obs. used (total)      252  
   data-arc span      7478 days (20.47 yr)  
   first obs. used      1998-06-20  
   last obs. used      2018-12-10  
   planetary ephem.      DE431  
   SB-pert. ephem.      SB431-N16  
   condition code      0  
   norm. resid. RMS      .57868  
   source      ORB  
   producer      Otto Matic  
   solution date      2019-Jul-14 07:43:19  

Additional Information
 Earth MOID = .97122 au 
 Jupiter MOID = 2.47705 au 
 T_jup = 3.466 
[ show covariance matrix ]

Ephemeris | Orbit Diagram | Orbital Elements | Mission Design | Physical Parameters | Discovery Circumstances | Close-Approach Data ]

Physical Parameter Table
Parameter Symbol Value Units Sigma Reference Notes
absolute magnitude H 17.3   n/a MPO459833  

183060 (2002 QX102)          Discovered 2002-Aug-17 by NEAT at Palomar
Reference: 20080420/Numbers.arcLast Updated: 2008-04-23

[ show close-approach data ]
Alternate Designations
 2002 QX102 = 2004 CR124 
Ephemeris | Orbit Diagram | Orbital Elements | Mission Design | Physical Parameters | Discovery Circumstances | Close-Approach Data ]
ABOUT SSD CREDITS/AWARDS PRIVACY/COPYRIGHT GLOSSARY LINKS
FirstGov
(server date/time)  
NASA Home Page
Site Manager:   Ryan S. Park
Webmaster  Alan B. Chamberlin